Вернуться в каталог

STARLINK-31699

АктивенСвязьVLEO
NORAD 59551·PAYLOAD·🇺🇸 United States

Запущен Apr 18, 2024 с Cape Canaveral Space Force Station

Loading…

Ближайшие Пролёты (ближайшие 24 часа)

TLE

СвежийSource: CelesTrak SupGP

Эпоха: Sep 15, 2026, 02:07 UTC

1 59551C 24074T   26258.08868056  .00025179  00000+0  91181-3 0  2580
2 59551  43.0028 353.7737 0001716 269.4212  26.8380 15.27571391    19

Отслеживайте STARLINK-31699 в реальном времени с AllMySat

Download on the App Store